EW0401 Weather Reports


time (UTC)temp
F
wind
direction
speed
knots
gust
knots
rain 1hr
in
rain 24hr
in
rain mn
in
humidity
%
barometer
mb
20260510021606 77 0 0.9 3.5 0.00 0.00 0.00 85 1012.1
20260510020100 77 0 1.7 7.8 0.00 0.00 0.00 85 1012.2
20260510014601 76 77 1.7 7.0 0.00 0.00 0.00 80 1011.3
20260510013135 77 80 2.6 7.8 0.00 0.00 0.00 81 1010.7
20260510011556 78 84 2.6 7.8 0.00 0.00 0.00 85 1010.6
20260510010054 79 0 0.0 4.3 0.00 0.00 0.00 84 1010.1
20260510004551 81 0 0.0 1.7 0.00 0.00 0.00 82 1010.0
20260510003104 83 265 0.0 3.5 0.00 0.00 0.00 76 1009.5
20260510001551 84 0 0.0 1.7 0.00 0.00 0.00 76 1008.8
20260510000116 85 0 0.0 1.7 0.00 0.00 0.00 76 1008.9
20260509234551 86 100 0.0 0.0 0.00 0.00 0.00 75 1008.8
20260509233052 87 0 0.0 1.7 0.00 0.00 0.00 74 1008.8
20260509231556 88 0 0.0 2.6 0.00 0.00 0.00 72 1009.0
20260509230058 89 0 0.0 2.6 0.00 0.00 0.00 70 1008.8
20260509224549 90 0 0.0 1.7 0.00 0.00 0.00 71 1008.6
20260509223103 89 0 0.0 2.6 0.00 0.00 0.00 73 1008.7
20260509221600 89 0 0.0 2.6 0.00 0.00 0.00 73 1008.5
20260509220052 90 0 0.0 1.7 0.00 0.00 0.00 72 1008.5
20260509214601 90 0 0.0 1.7 0.00 0.00 0.00 73 1008.3
20260509213051 89 0 0.0 2.6 0.00 0.00 0.00 74 1008.4
20260509211556 88 0 0.0 1.7 0.00 0.00 0.00 75 1008.3
20260509210056 90 0 0.0 1.7 0.00 0.00 0.00 73 1008.5
20260509204553 91 0 0.0 1.7 0.00 0.00 0.00 72 1008.7
20260509203056 92 0 0.0 1.7 0.00 0.00 0.00 72 1008.6
20260509201549 90 0 0.0 1.7 0.00 0.00 0.00 65 1008.7
20260509200106 89 0 0.0 2.6 0.00 0.00 0.00 67 1009.0
20260509194556 90 0 0.0 1.7 0.00 0.01 0.00 67 1009.2
20260509193051 89 0 0.0 1.7 0.00 0.01 0.00 71 1009.4
20260509191549 88 0 0.0 3.5 0.00 0.01 0.00 75 1009.3
20260509190058 88 250 0.0 3.5 0.00 0.01 0.00 74 1009.6
20260509184553 86 0 0.0 2.6 0.00 0.02 0.00 76 1009.9
20260509183104 85 0 0.0 2.6 0.00 0.02 0.00 78 1010.2
20260509181558 84 0 0.0 3.5 0.00 0.02 0.00 79 1010.3
20260509180051 84 0 0.0 2.6 0.00 0.02 0.00 79 1010.6
20260509174553 83 0 0.0 2.6 0.00 0.03 0.00 80 1010.9
20260509173057 83 0 0.0 0.9 0.00 0.03 0.00 80 1011.0
20260509171556 83 0 0.0 1.7 0.00 0.03 0.00 80 1011.1
20260509170053 83 0 0.0 1.7 0.00 0.03 0.00 80 1011.3
20260509164553 83 0 0.0 1.7 0.00 0.04 0.00 80 1011.1
20260509163101 83 0 0.0 3.5 0.00 0.04 0.00 80 1010.9
20260509161604 82 213 0.0 1.7 0.00 0.04 0.00 81 1011.0
20260509160055 81 0 0.0 0.0 0.00 0.04 0.00 85 1011.0
20260509154603 80 0 0.0 0.0 0.00 0.05 0.00 86 1011.2
20260509153058 79 0 0.0 0.9 0.00 0.05 0.00 87 1011.2
20260509151600 78 0 0.0 1.7 0.00 0.05 0.00 88 1010.4
20260509144556 78 0 0.0 0.0 0.00 0.10 0.00 89 1011.2
20260509143101 77 0 0.0 1.7 0.00 0.10 0.00 90 1011.1
20260509141600 77 0 0.0 2.6 0.00 0.10 0.00 91 1010.6
20260509134551 76 0 0.0 0.0 0.00 0.10 0.00 92 1010.6
20260509133051 75 0 0.0 0.0 0.00 0.10 0.00 92 1011.1
20260509131554 75 0 0.0 0.0 0.00 0.10 0.00 92 1011.1
20260509130052 74 0 0.0 0.0 0.00 0.10 0.00 92 1011.4
20260509125041 74 39 0.0 0.0 0.00 0.10 0.00 92 1010.9
20260509124553 74 0 0.0 0.0 0.00 0.10 0.00 91 1011.0
20260509124530 74 39 0.0 0.0 0.00 0.10 0.00 92 1010.7
20260509124506 74 39 0.0 0.0 0.00 0.10 0.00 92 1010.6
20260509124028 74 39 0.0 0.0 0.00 0.10 0.00 92 1010.6
20260509123115 74 0 0.0 0.0 0.00 0.10 0.00 91 1010.6
20260509121559 74 0 0.0 0.0 0.00 0.10 0.00 91 1010.4
20260509120052 73 0 0.0 0.0 0.00 0.10 0.00 91 1010.5
20260509114556 74 0 0.0 0.0 0.00 0.10 0.00 91 1010.8
20260509113053 74 0 0.0 0.0 0.00 0.10 0.00 91 1011.0
20260509111552 74 0 0.0 0.0 0.00 0.10 0.00 91 1010.8
20260509110100 74 0 0.0 0.0 0.00 0.10 0.00 91 1010.6
20260509104552 74 0 0.0 0.0 0.00 0.10 0.00 91 1010.1
20260509103101 74 0 0.0 0.0 0.00 0.10 0.00 91 1010.4
20260509101603 74 0 0.0 0.0 0.00 0.10 0.00 91 1010.3
20260509094559 74 0 0.0 0.0 0.00 0.10 0.00 91 1010.0
20260509093054 74 0 0.0 0.0 0.00 0.10 0.00 91 1009.9
20260509091557 74 0 0.0 0.0 0.00 0.10 0.00 91 1009.7
20260509090057 74 0 0.0 0.0 0.00 0.10 0.00 91 1009.7
20260509084554 74 0 0.0 0.0 0.00 0.10 0.00 91 1010.1
20260509083101 74 0 0.0 0.0 0.00 0.10 0.00 91 1010.2
20260509081556 74 0 0.0 0.0 0.00 0.10 0.00 91 1010.1
20260509080059 74 0 0.0 0.0 0.00 0.10 0.00 91 1010.2
20260509074608 74 0 0.0 0.0 0.00 0.10 0.00 91 1010.5
20260509073054 74 0 0.0 0.0 0.00 0.10 0.00 91 1010.7
20260509071607 74 0 0.0 0.0 0.00 0.10 0.00 91 1010.5
20260509070100 74 0 0.0 0.0 0.00 0.10 0.00 91 1010.4
20260509064601 75 0 0.0 0.0 0.00 0.10 0.00 91 1010.4
20260509063058 75 0 0.0 0.0 0.00 0.10 0.00 91 1010.6
20260509061601 75 0 0.0 0.0 0.00 0.10 0.00 91 1010.7
20260509054610 75 0 0.0 0.0 0.00 0.10 0.00 90 1011.0
20260509053053 75 0 0.0 0.9 0.00 0.10 0.00 91 1010.8
20260509051603 75 0 0.0 1.7 0.00 0.10 0.00 91 1011.1
20260509050056 74 0 0.0 0.0 0.00 0.10 0.00 90 1011.1
20260509044552 74 0 0.0 0.0 0.00 0.10 0.10 90 1011.4
20260509043100 74 0 0.0 1.7 0.00 0.10 0.10 90 1011.2
20260509041554 74 0 0.0 0.0 0.00 0.10 0.10 90 1011.0
20260509040055 74 0 0.0 2.6 0.00 0.10 0.10 90 1010.6
20260509034555 74 0 0.0 1.7 0.00 0.10 0.10 90 1010.9
20260509033056 74 0 0.0 1.7 0.00 0.10 0.10 90 1010.7
20260509031617 73 0 0.0 2.6 0.00 0.10 0.10 90 1010.6
20260509030057 73 0 0.0 0.0 0.00 0.10 0.10 90 1010.6
20260509024552 73 0 0.0 0.0 0.00 0.10 0.10 89 1010.5
20260509023056 73 0 0.0 0.0 0.00 0.10 0.10 89 1010.6